CW9335 Weather Reports


Display with metric or nautical units.
time (UTC)temp
F
wind
direction
speed
MPH
gust
MPH
rain 1hr
in
rain 24hr
in
rain mn
in
humidity
%
barometer
mb
20260504184316 74 158 1.0 3.0 0.00 0.00 0.00 37 1014.9
20260504183316 73 180 1.0 2.0 0.00 0.00 0.00 37 1015.0
20260504182316 73 203 1.0 2.0 0.00 0.00 0.00 40 1015.2
20260504181316 72 0.0 1.0 0.00 0.00 0.00 40 1015.3
20260504180317 72 0.0 1.0 0.00 0.00 0.00 40 1015.4
20260504175316 71 0.0 1.0 0.00 0.00 0.00 39 1015.6
20260504174316 73 0.0 1.0 0.00 0.00 0.00 38 1015.5
20260504173317 75 135 1.0 2.0 0.00 0.00 0.00 36 1015.5
20260504172316 75 225 1.0 2.0 0.00 0.00 0.00 36 1015.7
20260504171316 75 203 1.0 2.0 0.00 0.00 0.00 35 1015.8
20260504170317 76 248 2.0 3.0 0.00 0.00 0.00 33 1015.9
20260504160316 72 248 1.0 2.0 0.00 0.00 0.00 37 1016.6
20260504150316 70 225 1.0 2.0 0.00 0.00 0.00 40 1017.2
20260504141316 65 225 2.0 3.0 0.00 0.00 0.00 39 1017.0
20260504140316 65 203 1.0 2.0 0.00 0.00 0.00 46 1017.1
20260504130316 56 0.0 1.0 0.00 0.00 0.00 59 1017.4
20260504120316 48 0.0 0.0 0.00 0.00 0.00 76 1017.8
20260504110316 44 0.0 0.0 0.00 0.00 0.00 77 1018.0
20260504100316 46 0.0 1.0 0.00 0.00 0.00 71 1017.6
20260504081336 51 0.0 0.0 0.00 0.00 0.00 59 1017.9
20260504080315 51 0.0 0.0 0.00 0.00 0.00 59 1017.7
20260504070315 51 0.0 0.0 0.00 0.00 0.00 59 1017.9
20260504050317 50 0.0 0.0 0.00 0.00 0.00 64 1018.2
20260504045317 50 0.0 0.0 0.00 0.00 0.00 65 1018.1
20260504044337 50 0.0 0.0 0.00 0.00 0.00 63 1018.2
20260504043337 50 0.0 0.0 0.00 0.00 0.00 64 1018.1
20260504042317 50 0.0 0.0 0.00 0.00 0.00 63 1018.0
20260504041317 50 0.0 0.0 0.00 0.00 0.00 64 1018.0
20260504040317 50 0.0 0.0 0.00 0.00 0.00 65 1018.0
20260504035317 49 0.0 0.0 0.00 0.00 0.00 65 1017.9
20260504034317 49 0.0 0.0 0.00 0.00 0.00 65 1018.0
20260504033317 49 0.0 0.0 0.00 0.00 0.00 65 1017.9
20260504032317 49 0.0 0.0 0.00 0.00 0.00 65 1017.9
20260504031337 49 0.0 0.0 0.00 0.00 0.00 66 1017.9
20260504030317 50 0.0 0.0 0.00 0.00 0.00 66 1017.9
20260504025337 50 0.0 0.0 0.00 0.00 0.00 64 1018.1
20260504024317 50 0.0 0.0 0.00 0.00 0.00 63 1018.0
20260504023317 50 0.0 0.0 0.00 0.00 0.00 62 1017.9
20260504022317 50 0.0 0.0 0.00 0.00 0.00 61 1017.9
20260504021337 50 0.0 0.0 0.00 0.00 0.00 59 1017.6
20260504020317 50 0.0 0.0 0.00 0.00 0.00 60 1017.6
20260504015317 51 0.0 0.0 0.00 0.00 0.00 59 1017.6
20260504014317 51 0.0 0.0 0.00 0.00 0.00 57 1017.4
20260504013317 51 0.0 0.0 0.00 0.00 0.00 57 1017.4
20260504012317 52 0.0 0.0 0.00 0.00 0.00 57 1017.3
20260504011317 52 0.0 0.0 0.00 0.00 0.00 56 1017.4
20260504010317 52 0.0 0.0 0.00 0.00 0.00 55 1017.3
20260504005317 53 0.0 0.0 0.00 0.00 0.00 54 1017.2
20260504004317 53 0.0 0.0 0.00 0.00 0.00 52 1017.0
20260504003337 53 0.0 0.0 0.00 0.00 0.00 52 1017.1
20260504002317 54 0.0 0.0 0.00 0.00 0.00 51 1017.0
20260504001317 55 0.0 0.0 0.00 0.00 0.00 49 1016.9
20260504000337 56 0.0 0.0 0.00 0.00 0.00 46 1016.9
20260503235317 57 0.0 0.0 0.00 0.00 0.00 44 1016.8
20260503234317 58 0.0 0.0 0.00 0.00 0.00 42 1016.8
20260503233317 59 0.0 0.0 0.00 0.00 0.00 38 1016.7
20260503232317 60 0.0 0.0 0.00 0.00 0.00 38 1016.7
20260503231317 60 0.0 1.0 0.00 0.00 0.00 37 1016.6
20260503230337 61 0.0 0.0 0.00 0.00 0.00 37 1016.5
20260503225317 61 0.0 0.0 0.00 0.00 0.00 34 1016.4
20260503224337 62 0.0 1.0 0.00 0.00 0.00 33 1016.6
20260503223317 62 0.0 0.0 0.00 0.00 0.00 34 1016.7
20260503222317 62 0.0 0.0 0.00 0.00 0.00 35 1016.6
20260503221317 63 0.0 1.0 0.00 0.00 0.00 31 1016.6
20260503220317 63 270 2.0 2.0 0.00 0.00 0.00 29 1016.6
20260503215317 63 0.0 1.0 0.00 0.00 0.00 30 1016.8
20260503214317 63 158 1.0 2.0 0.00 0.00 0.00 29 1016.7
20260503213317 63 225 1.0 2.0 0.00 0.00 0.00 30 1016.9
20260503212357 64 248 1.0 2.0 0.00 0.00 0.00 28 1016.9
20260503211317 63 293 1.0 1.0 0.00 0.00 0.00 28 1016.9
20260503210317 63 0.0 0.0 0.00 0.00 0.00 31 1016.9
20260503205317 63 248 1.0 2.0 0.00 0.00 0.00 30 1017.0
20260503204317 63 248 1.0 2.0 0.00 0.00 0.00 29 1017.0
20260503203337 63 225 1.0 3.0 0.00 0.00 0.00 30 1017.2
20260503202337 63 225 2.0 2.0 0.00 0.00 0.00 28 1017.4
20260503201317 63 0.0 1.0 0.00 0.00 0.00 30 1017.4
20260503200317 63 248 1.0 2.0 0.00 0.00 0.00 29 1017.6
20260503195317 62 225 1.0 2.0 0.00 0.00 0.00 30 1017.6
20260503194317 61 248 1.0 2.0 0.00 0.00 0.00 29 1017.8
20260503193316 62 225 1.0 3.0 0.00 0.00 0.00 30 1018.1
20260503192317 62 293 2.0 3.0 0.00 0.00 0.00 30 1018.3
20260503191357 63 315 1.0 3.0 0.00 0.00 0.00 29 1018.5
20260503190317 63 315 2.0 3.0 0.00 0.00 0.00 29 1018.7
20260503185316 63 270 2.0 2.0 0.00 0.00 0.00 32 1018.9